Weather History for HELX - November, 2012

Change the Weather History Date:

Thursday, November 1, 2012

  Actual Average Record
Temperature  
Mean Temperature 79 °F -  
Max Temperature 95 °F 81 °F 98 °F (2007)
Min Temperature 63 °F 54 °F 55 °F (1996)
Cooling Degree Days 14    
Growing Degree Days 29 (Base 50)    
Moisture  
Dew Point 51 °F    
Average Humidity 39    
Maximum Humidity 57    
Minimum Humidity 21    
Precipitation  
Precipitation 0.00 in 0.00 in - ()
Sea Level Pressure  
Sea Level Pressure 29.87 in    
Wind  
Wind Speed 1 mph ()    
Max Wind Speed 4 mph    
Max Gust Speed -    
Visibility 6.0 miles    
Events      
Averages and records for this station are not official NWS values.
T = Trace of Precipitation, MM = Missing Value Source: Averaged Metar Reports

Daily Weather History Graph

Daily Weather History Graph

Search for Another Location

Airport or City:

Trip Planner

Search our weather history database for the weather conditions in past years. The results will help you decide how hot, cold, wet, or windy it might be!

Date:

Astronomy

Nov. 01, 2012 Rise Set
Actual Time 5:57 AM EET 5:07 PM EET
Civil Twilight 5:33 AM EET 5:31 PM EET
Nautical Twilight 5:06 AM EET 5:58 PM EET
Astronomical Twilight 4:39 AM EET 6:25 PM EET
Moon 7:00 PM EET (11/1) 8:01 AM EET (11/1)
Length of Visible Light 11h 57m
Length of Day
11h 10m
Waning Gibbous, 94% of the Moon is Illuminated
Nov 1
Waning Gibbous
Nov 7
Last Quarter
Nov 14
New
Nov 20
First Quarter
Nov 28
Full

Hourly Weather History & Observations

Time (EET) Temp. Heat Index Dew Point Humidity Pressure Visibility Wind Dir Wind Speed Gust Speed Precip Events Conditions
12:00 AM 73.4 °F - 53.6 °F 50% 29.86 in - Calm Calm - N/A   Clear
1:00 AM 71.6 °F - 48.2 °F 43% 29.86 in - Calm Calm - N/A   Clear
2:00 AM 69 °F - 45 °F 31% 29.86 in 6 mi Calm Calm - -  
2:00 AM 69.8 °F - 44.6 °F 40% 29.86 in - Calm Calm - N/A   Clear
3:00 AM 66.2 °F - 42.8 °F 43% 29.86 in - Calm Calm - N/A   Clear
4:00 AM 62.6 °F - 44.6 °F 52% 29.86 in - Calm Calm - N/A   Clear
5:00 AM 64.4 °F - 44.6 °F 49% 29.86 in - NNW 2.3 mph - N/A   Clear
6:00 AM 66.2 °F - 42.8 °F 43% 29.89 in - NNW 2.3 mph - N/A   Clear
7:00 AM 68.0 °F - 42.8 °F 40% 29.92 in - Calm Calm - N/A   Clear
8:00 AM 74 °F - 46 °F 25% 29.93 in 6 mi Calm Calm - -  
8:00 AM 75.2 °F - 46.4 °F 36% 29.92 in - Calm Calm - N/A   Clear
9:00 AM 78.8 °F - 50.0 °F 36% 29.86 in - ENE 2.3 mph - N/A   Clear
10:00 AM 82.4 °F 81.7 °F 55.4 °F 39% 29.95 in - NE 3.5 mph - N/A   Clear
11:00 AM 86.0 °F 85.4 °F 59.0 °F 40% 29.92 in - North 3.5 mph - N/A   Clear
12:00 PM 91.4 °F 90.7 °F 59.0 °F 34% 29.89 in - NW 2.3 mph - N/A   Clear
1:00 PM 93.2 °F 92.6 °F 59.0 °F 32% 29.86 in - NNW 2.3 mph - N/A   Clear
2:00 PM 94 °F - 58 °F 21% 29.82 in 6 mi NNW 3.5 mph - -  
3:00 PM 95.0 °F 94.4 °F 59.0 °F 30% 29.83 in - NNW 2.3 mph - N/A   Clear
4:00 PM 93.2 °F 91.9 °F 57.2 °F 30% 29.83 in - NNW 2.3 mph - N/A   Clear
8:00 PM 78 °F - 56 °F 36% 29.85 in 6 mi Calm Calm - -  
8:00 PM 77.0 °F - 55.4 °F 47% 29.86 in - Calm Calm - N/A   Clear
9:00 PM 77.0 °F - 51.8 °F 41% 29.86 in - SE 1.2 mph - N/A   Clear
10:00 PM 78.8 °F - 53.6 °F 42% 29.89 in - ENE 3.5 mph - N/A   Clear
11:00 PM 73.4 °F - 57.2 °F 57% 29.89 in - North 2.3 mph - N/A   Clear